• In Netherlands
  • List of Countries
  • For 7 days
  • Water Temperature
  • Satellite Maps
  • Weather Map
  • Weather Widgets
  • user-avatar
    Login

    Hourly Weather Minsk

    Today, 28 July, Friday

    Time Temperature Precipitation Wind Pressure Humidity
    00:00 +18°C° 0 mm 1 mps 736 mmHg 84%
    01:00 +18°C° 0 mm 1 mps 736 mmHg 85%
    02:00 +18°C° 0 mm 1 mps 736 mmHg 86%
    03:00 +16°C° 0 mm 1 mps 736 mmHg 86%
    04:00 +16°C° 0 mm 1 mps 736 mmHg 86%
    05:00 +16°C° 0 mm 1 mps 736 mmHg 86%
    06:00 +19°C° 0 mm 1 mps 737 mmHg 81%
    07:00 +21°C° 0 mm 1 mps 737 mmHg 76%
    08:00 +23°C° 0 mm 1 mps 737 mmHg 70%
    09:00 +24°C° 0.1 mm 1 mps 737 mmHg 65%
    10:00 +25°C° 0.1 mm 1 mps 737 mmHg 60%
    11:00 +26°C° 0.1 mm 2 mps 737 mmHg 55%
    12:00 +27°C° 0.1 mm 2 mps 737 mmHg 54%
    13:00 +27°C° 0.1 mm 1 mps 737 mmHg 53%
    14:00 +27°C° 0.1 mm 1 mps 737 mmHg 52%
    15:00 +27°C° 0.3 mm 1 mps 737 mmHg 56%
    16:00 +26°C° 0.3 mm 1 mps 736 mmHg 60%
    17:00 +26°C° 0.3 mm 1 mps 736 mmHg 64%
    18:00 +24°C° 0.4 mm 1 mps 736 mmHg 71%
    19:00 +22°C° 0.4 mm 1 mps 736 mmHg 78%
    20:00 +21°C° 0.4 mm 1 mps 736 mmHg 85%
    21:00 +20°C° 0.3 mm 1 mps 736 mmHg 87%
    22:00 +20°C° 0.3 mm 1 mps 736 mmHg 88%
    23:00 +17°C° 0.3 mm 0 mps 736 mmHg 90%

    Tomorrow, 29 July, Saturday

    Time Temperature Precipitation Wind Pressure Humidity
    00:00 +19°C° 0.2 mm 1 mps 736 mmHg 91%
    01:00 +18°C° 0.2 mm 2 mps 736 mmHg 92%
    02:00 +17°C° 0.2 mm 2 mps 736 mmHg 94%
    03:00 +17°C° 0.8 mm 3 mps 736 mmHg 94%
    04:00 +17°C° 0.8 mm 3 mps 736 mmHg 95%
    05:00 +17°C° 0.8 mm 3 mps 736 mmHg 96%
    06:00 +17°C° 0.6 mm 4 mps 736 mmHg 95%
    07:00 +17°C° 0.6 mm 4 mps 736 mmHg 94%
    08:00 +16°C° 0.6 mm 5 mps 736 mmHg 93%
    09:00 +17°C° 0.2 mm 5 mps 736 mmHg 90%
    10:00 +19°C° 0.2 mm 5 mps 737 mmHg 87%
    11:00 +19°C° 0.2 mm 6 mps 737 mmHg 84%
    12:00 +20°C° 0.2 mm 6 mps 737 mmHg 81%
    13:00 +21°C° 0.2 mm 6 mps 737 mmHg 77%
    14:00 +21°C° 0.2 mm 7 mps 737 mmHg 73%
    15:00 +21°C° 0.2 mm 6 mps 738 mmHg 71%
    16:00 +21°C° 0.2 mm 6 mps 738 mmHg 70%
    17:00 +21°C° 0.2 mm 6 mps 738 mmHg 68%
    18:00 +20°C° 0 mm 5 mps 739 mmHg 71%
    19:00 +19°C° 0 mm 5 mps 739 mmHg 75%
    20:00 +18°C° 0 mm 4 mps 739 mmHg 78%
    21:00 +18°C° 0 mm 4 mps 739 mmHg 80%
    22:00 +17°C° 0 mm 4 mps 740 mmHg 82%
    23:00 +15°C° 0 mm 4 mps 740 mmHg 84%

    Day after tomorrow, 30 July, Sunday

    Time Temperature Precipitation Wind Pressure Humidity
    00:00 +15°C° 0 mm 4 mps 740 mmHg 86%
    01:00 +14°C° 0 mm 4 mps 741 mmHg 88%
    02:00 +14°C° 0 mm 4 mps 741 mmHg 90%
    03:00 +13°C° 0 mm 3 mps 741 mmHg 91%
    04:00 +13°C° 0 mm 3 mps 741 mmHg 92%
    05:00 +12°C° 0 mm 3 mps 741 mmHg 93%
    06:00 +14°C° 0 mm 3 mps 742 mmHg 87%
    07:00 +16°C° 0 mm 3 mps 742 mmHg 82%
    08:00 +17°C° 0 mm 3 mps 742 mmHg 77%
    09:00 +19°C° 0 mm 3 mps 742 mmHg 74%
    10:00 +20°C° 0 mm 3 mps 742 mmHg 70%
    11:00 +22°C° 0 mm 3 mps 743 mmHg 67%
    12:00 +23°C° 0.1 mm 4 mps 742 mmHg 66%
    13:00 +23°C° 0.1 mm 4 mps 742 mmHg 65%
    14:00 +25°C° 0.1 mm 4 mps 742 mmHg 64%
    15:00 +25°C° 0.1 mm 4 mps 743 mmHg 65%
    16:00 +25°C° 0.1 mm 3 mps 743 mmHg 66%
    17:00 +25°C° 0.1 mm 3 mps 743 mmHg 66%
    18:00 +24°C° 0 mm 2 mps 743 mmHg 73%
    19:00 +21°C° 0 mm 2 mps 743 mmHg 79%
    20:00 +21°C° 0 mm 1 mps 743 mmHg 85%
    21:00 +20°C° 0 mm 1 mps 743 mmHg 86%
    22:00 +19°C° 0 mm 1 mps 744 mmHg 88%
    23:00 +19°C° 0 mm 1 mps 744 mmHg 90%

    31 July, Monday

    Time Temperature Precipitation Wind Pressure Humidity
    00:00 +18°C° 0 mm 1 mps 744 mmHg 90%
    01:00 +18°C° 0 mm 1 mps 744 mmHg 91%
    02:00 +18°C° 0 mm 1 mps 744 mmHg 91%
    03:00 +18°C° 0 mm 1 mps 744 mmHg 92%
    04:00 +18°C° 0 mm 1 mps 744 mmHg 92%
    05:00 +18°C° 0 mm 1 mps 744 mmHg 92%
    06:00 +18°C° 0 mm 2 mps 744 mmHg 88%
    07:00 +20°C° 0 mm 2 mps 745 mmHg 83%
    08:00 +23°C° 0 mm 2 mps 745 mmHg 78%
    09:00 +25°C° 0 mm 3 mps 745 mmHg 74%
    10:00 +26°C° 0 mm 3 mps 745 mmHg 69%
    11:00 +28°C° 0 mm 3 mps 745 mmHg 64%
    12:00 +29°C° 0 mm 4 mps 745 mmHg 62%
    13:00 +30°C° 0 mm 4 mps 744 mmHg 60%
    14:00 +32°C° 0 mm 4 mps 744 mmHg 58%
    15:00 +30°C° 0.4 mm 4 mps 744 mmHg 61%
    16:00 +30°C° 0.4 mm 4 mps 744 mmHg 64%
    17:00 +30°C° 0.4 mm 3 mps 744 mmHg 67%
    18:00 +28°C° 0.3 mm 3 mps 744 mmHg 71%
    19:00 +27°C° 0.3 mm 2 mps 744 mmHg 76%
    20:00 +25°C° 0.3 mm 2 mps 744 mmHg 81%
    21:00 +24°C° 0.2 mm 2 mps 745 mmHg 83%
    22:00 +24°C° 0.2 mm 3 mps 745 mmHg 84%
    23:00 +22°C° 0.2 mm 3 mps 745 mmHg 86%

    1 August, Tuesday

    Time Temperature Precipitation Wind Pressure Humidity
    00:00 +23°C° 0.4 mm 2 mps 745 mmHg 88%
    01:00 +21°C° 0.4 mm 2 mps 745 mmHg 89%
    02:00 +21°C° 0.4 mm 2 mps 745 mmHg 91%
    03:00 +20°C° 0 mm 2 mps 746 mmHg 91%
    04:00 +20°C° 0 mm 2 mps 746 mmHg 92%
    05:00 +20°C° 0 mm 2 mps 746 mmHg 92%
    06:00 +23°C° 0 mm 2 mps 747 mmHg 88%
    07:00 +24°C° 0 mm 2 mps 747 mmHg 83%
    08:00 +26°C° 0 mm 2 mps 747 mmHg 79%
    09:00 +27°C° 0 mm 2 mps 748 mmHg 72%
    10:00 +29°C° 0 mm 1 mps 748 mmHg 64%
    11:00 +30°C° 0 mm 1 mps 748 mmHg 57%
    12:00 +31°C° 0 mm 1 mps 748 mmHg 55%
    13:00 +31°C° 0 mm 1 mps 748 mmHg 53%
    14:00 +32°C° 0 mm 1 mps 748 mmHg 50%
    15:00 +32°C° 0 mm 1 mps 748 mmHg 51%
    16:00 +32°C° 0 mm 1 mps 748 mmHg 52%
    17:00 +32°C° 0 mm 1 mps 748 mmHg 53%
    18:00 +30°C° 0 mm 1 mps 747 mmHg 59%
    19:00 +28°C° 0 mm 2 mps 747 mmHg 65%
    20:00 +27°C° 0 mm 2 mps 746 mmHg 71%
    21:00 +26°C° 0.2 mm 3 mps 746 mmHg 73%
    22:00 +25°C° 0.2 mm 3 mps 746 mmHg 76%
    23:00 +24°C° 0.2 mm 3 mps 746 mmHg 78%

    2 August, Wednesday

    Time Temperature Precipitation Wind Pressure Humidity
    00:00 +24°C° 0.4 mm 3 mps 746 mmHg 79%
    01:00 +22°C° 0.4 mm 3 mps 746 mmHg 81%
    02:00 +22°C° 0.4 mm 3 mps 746 mmHg 82%
    03:00 +22°C° 0.1 mm 3 mps 745 mmHg 82%
    04:00 +21°C° 0.1 mm 3 mps 745 mmHg 83%
    05:00 +21°C° 0.1 mm 3 mps 745 mmHg 84%
    06:00 +22°C° 0 mm 3 mps 745 mmHg 80%
    07:00 +25°C° 0 mm 4 mps 745 mmHg 77%
    08:00 +26°C° 0 mm 4 mps 745 mmHg 74%
    09:00 +27°C° 0 mm 5 mps 744 mmHg 70%
    10:00 +28°C° 0 mm 5 mps 744 mmHg 66%
    11:00 +30°C° 0 mm 5 mps 744 mmHg 63%
    12:00 +32°C° 0 mm 5 mps 744 mmHg 61%
    13:00 +32°C° 0 mm 5 mps 744 mmHg 60%
    14:00 +33°C° 0 mm 5 mps 744 mmHg 58%
    15:00 +32°C° 0.2 mm 4 mps 744 mmHg 62%
    16:00 +31°C° 0.2 mm 3 mps 743 mmHg 65%
    17:00 +30°C° 0.2 mm 2 mps 743 mmHg 69%
    18:00 +29°C° 0.1 mm 2 mps 743 mmHg 74%
    19:00 +28°C° 0.1 mm 2 mps 743 mmHg 79%
    20:00 +26°C° 0.1 mm 2 mps 743 mmHg 84%
    21:00 +25°C° 0.5 mm 2 mps 743 mmHg 86%
    22:00 +24°C° 0.5 mm 2 mps 743 mmHg 89%
    23:00 +23°C° 0.5 mm 2 mps 743 mmHg 91%
    Show more